Location: Lugrin
(46.4033°N, 6.6674°E)
Time: 10:31:57
(UTC+00:00)

Tsikada Rocket - Visible Passes

Search period start: 17 January 2021 00:00
Search period end: 27 January 2021 00:00
Orbit: 957 x 1009 km, 82.9° (Epoch: 16 January)

Date Brightness Start Highest point End Pass type
(mag) Time Alt. Az. Time Alt. Az. Time Alt. Az.
17 Jan 4.6 03:52:33 47° SE 03:52:33 47° SE 03:56:58 10° SSE visible
17 Jan 5.2 05:37:30 19° WSW 05:37:30 19° WSW 05:40:18 10° SW visible
17 Jan 4.4 17:18:24 10° SSW 17:24:43 69° W 17:31:00 10° N visible
17 Jan 6.7 19:08:57 10° W 19:11:32 13° WNW 19:14:08 10° NNW visible
18 Jan 6.6 02:36:54 10° ESE 02:36:54 10° ESE 02:36:57 10° ESE visible
18 Jan 5.0 04:21:52 30° S 04:21:52 30° S 04:24:49 10° S visible
18 Jan 5.4 17:46:53 10° SW 17:52:46 39° WNW 17:58:36 10° N visible
19 Jan 6.5 03:06:07 11° SE 03:06:07 11° SE 03:06:22 10° SE visible
19 Jan 5.8 04:51:04 15° SSW 04:51:04 15° SSW 04:52:00 10° SSW visible
19 Jan 6.3 18:16:09 10° WSW 18:21:00 23° WNW 18:25:50 10° NNW visible
20 Jan 4.4 16:56:24 10° SSW 17:02:42 70° W 17:08:58 10° N visible
20 Jan 6.7 18:46:48 10° W 18:49:30 13° WNW 18:52:11 10° NNW visible
21 Jan 5.4 17:24:51 10° SW 17:30:43 40° WNW 17:36:35 10° N visible
22 Jan 6.2 17:54:05 10° WSW 17:58:57 23° WNW 18:03:49 10° NNW visible
23 Jan 6.7 18:24:39 10° W 18:27:27 13° WNW 18:30:13 10° NNW visible
24 Jan 5.4 17:02:49 10° SW 17:08:41 41° WNW 17:14:33 10° N visible
25 Jan 6.2 17:32:01 10° WSW 17:36:55 23° WNW 17:41:48 10° NNW visible
26 Jan 6.6 18:02:30 10° W 18:05:23 13° WNW 18:08:16 10° NNW visible
